Aktuální počasí v Česku a ve světě - METAR

Seznam meteostanic umístěných nejčasteji na letišti v ČR a ve světě

Vyhledat místa podle abecedy:
A B C D E F G H I J K L M N O P Q R S T U V W X Y Z

Filtrovat:

ID stanice:
a/nebo
Název místa (fulltext):
 
Místo (ID)Naposledy načteno 
Yamoussoukro (DIYO) 02.03.2021 01:00 UTC Zobrazit METAR
DIYO 020100Z 22004KT 8000 NSC 26/24 Q1009 NOSIG
Yangon (VYYY) 02.03.2021 01:00 UTC Zobrazit METAR
VYYY 020100Z 33002KT 1500 BR SCT010 21/20 Q1013 BECMG 3000 BR
Yaounde (FKYS) 02.03.2021 01:00 UTC Zobrazit METAR
FKYS 020100Z 21005KT 6000 BKN006 24/22 Q1013 NOSIG
Yerevan (UGEE) Zatím nenačteno  
Reklama

Reklama


Počasí na Váš email

Emaily jsou bez reklamy a bez spamu



Odhlásit newsletter


Další české internetové stránky (nejen) o počasí najdete v katalogu TOPlist - weby o počasí nebo vyhledejte na internetu, co jste tu na 🌞 Slunečnu ⛅ zatím nenašli:
⭐ Přidat Slunečno.cz do oblíbených | 🏠 Nastavit Slunečno.cz jako HOMEPAGE

⬆️ Posunout stránku nahoru ⬆️
Reklama